Wind_Speed
7 7 5 4 5 6 8 9 9 9 9 10 13 15 17 18 20 21 21 21 21 20 19 18 17 17 18 19 21 22 24 25 26 27 28 29 29 30 30 30 30 30 31 31
6 5 4 4 3 4 5 5 5 6 6 8 9 11 11 12 13 13 13 13 14 15 14 14 15 17 19 20 21 23 24 26 27 28 29 30 30 31 31 30 30 30 30 30
6 5 4 4 4 4 3 4 3 3 4 4 6 6 6 6 5 3 4 5 8 8 10 12 13 16 17 19 21 23 25 26 27 28 29 30 31 31 31 31 30 30 29 29
6 5 4 4 4 5 4 3 2 3 3 3 5 6 8 7 4 4 2 3 4 5 7 10 12 15 17 19 21 23 24 26 27 28 29 29 30 30 31 31 30 30 30 29
5 5 4 4 4 5 5 4 3 3 2 2 4 6 8 9 7 5 4 4 4 5 7 10 13 15 17 19 20 21 22 24 25 25 26 27 28 28 28 28 29 29 29 29
5 5 4 5 6 6 5 4 3 3 2 1 2 4 5 6 6 4 4 5 6 7 9 11 13 15 16 17 18 20 21 22 23 23 24 25 26 26 26 27 28 28 29 29
6 5 5 6 6 6 6 5 5 4 3 3 2 3 4 5 5 5 6 7 7 8 9 11 12 14 15 16 18 19 21 22 23 24 25 25 25 26 26 27 28 29 30 31
7 6 6 6 6 7 7 7 7 6 5 4 4 4 6 7 7 8 8 8 8 9 10 11 12 13 15 16 18 20 22 23 25 25 26 26 26 26 27 27 28 30 31 32
8 7 7 7 7 7 8 9 8 6 5 4 4 5 7 9 9 9 9 8 9 9 10 12 13 14 16 18 20 22 23 24 25 26 27 27 28 28 28 29 30 31 33 34
9 8 8 8 8 7 9 10 9 6 5 4 4 4 6 8 9 9 9 9 9 10 11 12 14 17 19 21 23 24 25 26 27 27 28 29 30 31 31 32 33 34 35 36
9 8 8 9 9 9 9 10 9 8 7 6 5 5 7 8 9 10 10 10 11 12 13 15 18 20 22 24 25 26 27 28 28 30 31 31 33 34 34 35 36 37 37 38
11 10 9 10 10 10 10 11 11 9 8 7 7 8 8 9 10 11 12 12 13 14 16 18 21 23 24 26 27 28 29 30 31 32 33 34 35 36 38 38 39 39 40 40
11 11 10 10 12 12 13 13 13 11 9 8 9 11 11 12 12 13 14 15 16 18 19 21 22 24 26 27 28 30 31 32 33 35 36 37 38 39 40 42 42 42 42 42
12 12 12 12 14 15 15 14 14 13 12 11 11 13 14 14 15 16 17 18 19 20 21 22 24 25 27 29 30 31 32 34 35 37 38 39 40 41 43 44 44 45 44 44
12 12 12 12 13 13 13 13 14 13 13 13 13 14 16 17 18 18 19 20 20 21 22 23 25 27 29 30 32 33 35 36 37 38 39 40 41 43 44 45 46 46 46 45
11 11 11 11 12 12 12 12 13 13 13 14 15 17 18 20 20 21 22 22 22 22 23 25 26 28 30 32 34 36 37 38 39 40 41 41 43 44 45 46 47 47 46 46
12 11 11 10 11 11 11 11 12 13 14 15 16 18 20 22 22 23 23 23 23 24 25 26 28 30 32 34 36 37 39 39 40 41 41 42 44 45 46 47 47 47 47 46
12 11 11 10 10 10 10 11 11 12 13 15 17 19 21 22 23 23 23 23 24 25 26 28 30 32 34 36 38 39 40 40 41 42 43 44 45 46 47 48 48 47 46 46
11 11 12 11 11 9 9 12 12 13 13 16 18 20 21 22 23 23 24 25 26 26 28 29 31 33 36 38 39 40 40 41 42 43 44 45 46 47 48 48 48 47 46 45
13 14 15 15 14 11 11 13 14 14 14 17 19 20 21 23 23 24 26 27 28 29 30 31 33 35 37 38 39 40 40 41 43 44 45 46 47 48 49 48 47 46 45 44
16 17 18 19 17 15 15 17 16 18 18 18 19 21 22 24 25 26 27 28 30 31 33 34 36 37 39 39 40 41 41 42 44 45 46 48 49 50 50 48 47 45 44 43
20 21 21 22 20 21 20 20 21 21 21 22 22 23 24 25 26 27 28 30 31 33 35 37 39 39 40 41 41 42 43 44 46 47 48 50 51 51 49 47 45 44 43 42
23 24 25 24 23 23 24 24 24 25 25 25 26 26 27 27 28 29 30 32 33 36 38 39 40 41 41 42 43 44 45 47 48 50 51 52 51 51 49 46 44 43 42 41
23 26 27 28 26 27 28 28 28 28 29 29 29 30 31 31 30 31 32 34 35 37 39 41 41 42 43 43 44 46 47 49 51 52 52 52 51 50 48 45 43 42 41 39
24 27 29 30 30 31 30 30 30 30 31 32 32 33 34 34 33 34 35 36 37 38 39 41 42 42 44 45 46 48 50 52 53 54 54 53 51 49 47 44 42 41 40 38
27 31 33 33 33 34 33 33 33 33 33 34 35 36 36 37 37 37 37 38 38 39 40 41 42 43 45 47 49 51 53 55 56 55 54 52 50 48 45 42 41 40 38 37
Wind_Direction
0 356 341 320 290 277 272 278 278 278 279 287 289 283 277 274 278 276 271 268 270 275 282 289 293 298 304 308 311 313 313 313 313 312 311 310 309 307 305 303 301 299 296 294
2 3 5 1 332 306 296 292 294 284 284 289 298 292 287 282 280 272 269 266 265 274 284 291 296 302 309 313 316 317 317 316 316 314 313 311 310 308 306 304 302 300 298 296
354 351 348 346 343 326 329 325 320 314 312 334 341 337 324 317 308 286 273 270 271 280 291 302 306 309 313 316 317 317 316 315 314 312 310 309 308 307 306 304 302 301 299 297
354 349 353 354 345 344 351 354 333 328 340 11 23 29 30 35 42 44 21 321 309 307 313 316 316 317 317 317 316 315 313 312 310 308 307 307 306 305 305 304 303 302 300 298
341 341 344 340 347 339 342 358 339 327 349 30 41 42 50 49 50 51 39 15 349 332 326 321 318 316 315 314 313 312 311 310 310 309 309 310 309 308 308 306 305 304 303 302
321 315 327 329 337 344 339 329 325 319 309 329 31 29 36 27 23 15 357 341 331 323 320 317 313 312 312 312 312 313 315 316 318 318 318 318 318 317 315 313 312 310 308 307
312 297 304 313 326 336 336 332 326 311 294 287 295 333 350 343 337 331 327 322 316 313 313 313 313 314 315 318 322 325 327 329 329 329 328 327 326 324 322 321 318 316 314 312
305 299 298 307 319 330 339 340 334 327 316 288 282 301 315 312 311 310 313 313 313 314 316 317 320 323 328 333 335 336 336 336 336 336 335 333 332 330 327 325 323 320 317 315
297 299 297 300 313 320 326 333 332 330 329 315 302 291 291 291 294 299 307 313 319 320 322 326 330 335 340 342 343 342 341 340 340 339 338 337 335 333 330 328 326 323 320 317
292 294 293 300 309 312 315 322 323 320 327 328 312 294 284 280 289 301 312 320 325 326 330 337 343 346 348 348 346 345 344 342 341 341 340 339 337 335 333 330 328 326 323 320
294 296 293 293 300 303 306 310 311 310 314 319 318 313 297 294 299 306 316 323 327 333 340 346 350 351 350 349 347 345 343 341 340 339 339 338 336 335 333 332 330 327 325 322
297 295 291 285 285 287 288 296 300 303 311 318 322 324 313 311 312 317 322 327 333 338 342 346 349 350 348 346 344 342 341 339 338 337 337 337 336 335 334 332 331 329 326 324
296 291 284 273 269 274 280 289 294 299 306 316 322 324 320 320 320 322 326 331 335 338 342 344 346 346 344 342 340 339 338 337 336 335 335 335 335 334 333 332 330 329 327 325
293 291 283 273 269 272 276 282 286 291 302 312 317 317 317 318 320 323 328 332 334 336 338 339 340 340 339 338 337 336 336 335 334 334 334 334 333 332 331 330 329 328 327 325
292 291 287 282 277 275 276 277 280 288 298 304 310 312 313 315 319 322 326 328 329 331 332 334 334 335 335 335 335 334 334 333 333 333 332 332 331 331 330 329 328 327 326 324
288 288 286 286 286 285 287 286 287 293 300 302 305 307 308 312 316 319 321 323 324 326 328 330 332 332 333 332 332 332 332 332 332 331 331 330 330 329 329 328 327 326 325 324
280 281 281 285 291 297 300 299 298 299 300 300 300 304 307 311 315 316 318 319 321 323 325 328 329 330 330 330 330 330 330 330 330 330 330 330 329 328 327 327 326 325 324 323
275 274 276 283 290 296 302 302 303 303 303 301 302 305 308 311 314 315 316 317 319 321 323 326 327 328 328 328 328 328 328 328 329 329 329 329 328 327 326 326 325 324 324 323
274 271 276 283 288 292 296 300 302 305 306 302 304 306 309 311 313 314 315 317 318 320 322 324 325 325 326 326 326 326 327 327 328 329 329 328 328 327 325 324 324 323 323 323
268 270 276 283 290 288 301 298 301 301 304 301 303 304 308 311 313 315 316 317 318 319 320 321 322 323 323 324 324 325 326 327 328 329 329 328 327 326 325 324 323 323 323 323
265 271 277 283 288 293 300 302 302 305 304 302 303 304 307 310 312 314 314 315 315 316 317 318 320 321 322 322 323 324 325 326 327 328 328 327 326 325 324 323 322 322 323 324
268 274 278 283 288 294 298 300 301 301 301 302 302 304 306 309 310 311 311 311 312 313 314 316 318 319 321 322 323 325 325 326 326 327 326 325 325 324 324 323 322 322 323 324
269 274 279 282 287 292 294 296 298 299 300 301 302 303 305 306 307 307 307 308 309 311 312 314 316 318 320 322 323 325 326 327 327 326 326 325 324 323 324 323 322 323 324 325
270 276 279 283 287 288 289 292 294 295 297 299 300 301 302 303 304 304 304 306 308 309 311 313 315 317 319 321 323 325 326 326 326 326 326 325 324 324 324 323 323 323 324 325
272 272 274 276 280 280 283 286 288 291 294 295 296 296 298 299 300 301 302 303 305 307 309 311 314 316 318 320 322 324 324 325 325 325 325 325 325 324 324 323 323 323 324 324
266 269 272 276 278 280 283 285 288 290 291 292 293 294 295 297 298 299 300 302 304 305 307 309 311 313 317 319 320 321 322 323 324 324 325 325 325 325 324 324 323 324 324 325
Height
5869 5869 5867 5866 5865 5865 5865 5865 5865 5865 5864 5863 5861 5859 5857 5856 5854 5852 5851 5852 5852 5853 5853 5853 5852 5851 5849 5848 5846 5844 5842 5840 5838 5836 5834 5832 5829 5827 5825 5823 5820 5818 5817 5815
5871 5869 5868 5866 5866 5865 5865 5865 5864 5863 5862 5860 5858 5856 5853 5851 5849 5847 5847 5848 5849 5850 5851 5850 5849 5848 5846 5844 5842 5840 5838 5836 5833 5831 5828 5826 5823 5821 5818 5816 5813 5811 5809 5807
5870 5870 5868 5867 5866 5865 5864 5864 5863 5862 5861 5859 5857 5854 5851 5849 5846 5845 5845 5846 5847 5848 5848 5848 5847 5845 5844 5841 5839 5837 5834 5832 5829 5826 5823 5820 5817 5814 5812 5809 5806 5804 5802 5800
5871 5869 5868 5867 5866 5865 5864 5864 5862 5861 5860 5858 5857 5854 5851 5848 5846 5846 5846 5846 5847 5847 5847 5846 5845 5844 5842 5839 5837 5834 5831 5829 5825 5822 5819 5815 5812 5808 5805 5802 5799 5797 5795 5793
5871 5869 5868 5867 5866 5865 5864 5863 5862 5861 5860 5859 5857 5855 5854 5851 5849 5848 5848 5847 5847 5847 5846 5845 5844 5842 5840 5837 5834 5832 5829 5825 5821 5817 5813 5809 5806 5802 5799 5795 5792 5790 5787 5785
5871 5869 5868 5867 5866 5865 5864 5863 5862 5861 5860 5859 5858 5857 5855 5853 5851 5850 5850 5849 5848 5847 5846 5844 5843 5841 5838 5835 5832 5828 5824 5820 5816 5812 5808 5804 5800 5796 5793 5789 5786 5783 5780 5777
5870 5869 5868 5867 5866 5865 5864 5863 5862 5860 5859 5859 5858 5856 5856 5854 5852 5851 5850 5849 5848 5847 5845 5844 5841 5838 5835 5831 5828 5824 5820 5815 5811 5807 5802 5798 5794 5791 5787 5783 5780 5776 5773 5769
5869 5868 5867 5866 5865 5864 5862 5862 5861 5860 5858 5857 5856 5856 5856 5853 5852 5850 5849 5848 5847 5845 5843 5841 5838 5835 5831 5827 5823 5819 5815 5811 5806 5802 5798 5793 5789 5785 5782 5778 5774 5770 5766 5762
5868 5867 5866 5865 5864 5863 5861 5860 5859 5858 5857 5856 5855 5855 5854 5851 5850 5849 5848 5846 5845 5843 5841 5838 5835 5831 5827 5823 5819 5815 5811 5806 5802 5798 5793 5789 5785 5781 5776 5772 5768 5764 5759 5755
5866 5865 5864 5863 5862 5861 5861 5859 5858 5857 5856 5855 5854 5853 5852 5849 5848 5847 5845 5844 5842 5840 5837 5834 5830 5826 5822 5818 5814 5810 5806 5802 5797 5793 5789 5784 5780 5775 5771 5766 5762 5757 5752 5747
5864 5863 5862 5861 5860 5859 5859 5858 5857 5856 5855 5854 5852 5853 5850 5848 5846 5845 5843 5841 5839 5836 5833 5830 5825 5821 5817 5813 5809 5805 5801 5797 5793 5789 5784 5779 5774 5769 5764 5759 5754 5749 5743 5738
5861 5861 5860 5859 5858 5858 5857 5856 5856 5855 5853 5851 5850 5852 5847 5845 5843 5841 5840 5837 5835 5832 5828 5824 5820 5816 5812 5809 5805 5801 5797 5793 5788 5784 5779 5773 5768 5763 5757 5752 5746 5741 5735 5729
5859 5858 5858 5857 5858 5856 5855 5854 5853 5852 5851 5849 5847 5849 5844 5842 5840 5838 5836 5833 5830 5827 5823 5819 5816 5812 5808 5805 5801 5797 5792 5788 5783 5778 5773 5767 5761 5756 5750 5744 5738 5732 5726 5719
5856 5855 5855 5855 5853 5852 5852 5851 5850 5849 5848 5846 5845 5843 5841 5838 5836 5834 5831 5829 5826 5822 5819 5815 5812 5808 5804 5800 5796 5792 5787 5782 5777 5772 5766 5760 5754 5748 5742 5736 5729 5723 5716 5710
5854 5853 5851 5850 5849 5848 5848 5847 5846 5845 5844 5843 5841 5839 5837 5834 5832 5829 5827 5824 5821 5818 5815 5811 5808 5804 5800 5796 5791 5787 5782 5777 5771 5765 5759 5753 5747 5741 5734 5727 5721 5714 5707 5700
5851 5850 5849 5848 5846 5845 5844 5844 5842 5841 5840 5839 5837 5836 5833 5830 5827 5825 5822 5819 5817 5814 5810 5807 5803 5799 5794 5790 5786 5781 5776 5770 5764 5758 5752 5746 5739 5733 5726 5719 5712 5705 5697 5690
5847 5847 5846 5845 5844 5842 5842 5840 5839 5838 5837 5835 5833 5832 5828 5825 5823 5820 5817 5815 5812 5809 5806 5802 5798 5793 5789 5785 5780 5775 5769 5763 5758 5752 5745 5739 5732 5725 5717 5710 5703 5695 5688 5680
5844 5843 5843 5842 5842 5841 5841 5837 5836 5834 5833 5831 5829 5826 5824 5821 5818 5815 5813 5810 5807 5804 5800 5797 5792 5788 5783 5779 5774 5768 5763 5757 5751 5744 5738 5731 5723 5716 5708 5701 5693 5685 5678 5670
5841 5841 5840 5840 5838 5838 5837 5834 5833 5831 5830 5827 5825 5822 5819 5816 5814 5811 5808 5805 5802 5798 5795 5791 5787 5782 5778 5773 5768 5762 5756 5750 5744 5737 5730 5722 5715 5707 5699 5691 5683 5676 5668 5660
5838 5837 5837 5836 5834 5834 5834 5831 5829 5828 5826 5823 5820 5817 5814 5811 5809 5806 5802 5799 5796 5792 5789 5785 5781 5777 5772 5767 5761 5755 5749 5743 5736 5729 5721 5714 5706 5698 5690 5682 5674 5666 5658 5650
5833 5833 5832 5831 5829 5828 5828 5826 5824 5823 5821 5818 5815 5812 5809 5806 5804 5801 5797 5793 5789 5786 5782 5779 5774 5770 5765 5759 5754 5748 5741 5735 5728 5720 5713 5705 5697 5689 5681 5673 5664 5657 5649 5641
5828 5827 5826 5825 5824 5825 5822 5820 5819 5817 5814 5812 5809 5806 5804 5801 5798 5794 5791 5787 5783 5779 5776 5771 5767 5762 5757 5752 5746 5740 5733 5726 5719 5712 5704 5696 5688 5680 5671 5663 5655 5647 5640 5632
5822 5822 5820 5819 5820 5818 5815 5813 5812 5809 5807 5805 5803 5800 5797 5795 5792 5788 5785 5781 5777 5773 5768 5764 5759 5754 5749 5743 5737 5731 5724 5717 5710 5702 5694 5686 5678 5669 5661 5654 5646 5638 5630 5623
5817 5815 5813 5811 5811 5810 5808 5806 5804 5802 5800 5798 5796 5793 5791 5788 5785 5782 5778 5774 5770 5765 5760 5756 5751 5746 5740 5734 5728 5722 5715 5708 5701 5693 5685 5676 5668 5659 5651 5644 5637 5629 5622 5615
5811 5807 5805 5804 5804 5802 5801 5799 5797 5795 5793 5791 5789 5786 5783 5780 5778 5774 5770 5766 5762 5757 5752 5747 5742 5737 5731 5725 5719 5713 5706 5699 5692 5683 5675 5667 5658 5650 5642 5634 5627 5621 5614 5607
5801 5798 5797 5796 5795 5793 5793 5792 5790 5788 5786 5783 5781 5778 5775 5772 5769 5765 5761 5757 5753 5748 5743 5738 5733 5727 5722 5716 5710 5703 5697 5689 5682 5674 5665 5657 5649 5641 5633 5626 5619 5612 5606 5599